DW0639 Weather Reports


time (UTC)temp
C
wind
direction
speed
KPH
gust
KPH
rain 1hr
cm
rain 24hr
cm
rain mn
cm
humidity
%
barometer
mb
20260504050358 11 144 1.6 8.0 0.00 0.00 0.00 65 1017.3
20260504045357 11 168 1.6 8.0 0.00 0.00 0.00 66 1017.3
20260504044325 11 157 3.2 8.0 0.00 0.00 0.00 66 1017.3
20260504043324 11 177 3.2 8.0 0.00 0.00 0.00 65 1017.3
20260504042323 11 175 3.2 6.4 0.00 0.00 0.00 65 1017.3
20260504041220 11 180 3.2 6.4 0.00 0.00 0.00 65 1017.6
20260504040219 11 156 1.6 4.8 0.00 0.00 0.00 65 1017.6
20260504035219 11 161 1.6 4.8 0.00 0.00 0.00 65 1017.6
20260504034218 11 189 1.6 4.8 0.00 0.00 0.00 65 1017.9
20260504033217 11 158 1.6 4.8 0.00 0.00 0.00 65 1017.9
20260504032216 11 184 3.2 3.2 0.00 0.00 0.00 65 1017.9
20260504031216 11 167 0.0 3.2 0.00 0.00 0.00 66 1017.9
20260504030214 12 167 0.0 3.2 0.00 0.00 0.00 66 1017.9
20260504025214 12 152 1.6 3.2 0.00 0.00 0.00 66 1017.9
20260504024142 12 155 1.6 3.2 0.00 0.00 0.00 66 1017.6
20260504023141 12 196 1.6 4.8 0.00 0.00 0.00 66 1017.6
20260504022140 12 185 1.6 4.8 0.00 0.00 0.00 65 1017.6
20260504021139 13 174 1.6 4.8 0.00 0.00 0.00 66 1017.6
20260504020138 13 155 1.6 4.8 0.00 0.00 0.00 65 1017.6
20260504015137 13 165 1.6 6.4 0.00 0.00 0.00 65 1017.3
20260504014137 13 160 1.6 6.4 0.00 0.00 0.00 64 1017.3
20260504013136 13 162 1.6 4.8 0.00 0.00 0.00 63 1017.3
20260504012104 13 203 1.6 3.2 0.00 0.00 0.00 62 1017.3
20260504011033 13 159 0.0 0.0 0.00 0.00 0.00 64 1016.9
20260504005859 13 160 0.0 0.0 0.00 0.00 0.00 65 1017.3
20260504004858 14 160 0.0 0.0 0.00 0.00 0.00 63 1017.3
20260504003858 15 159 0.0 0.0 0.00 0.00 0.00 60 1017.3
20260504002857 16 159 0.0 0.0 0.00 0.00 0.00 56 1017.3
20260504001825 17 160 0.0 0.0 0.00 0.00 0.00 52 1017.3
20260504000824 18 159 0.0 3.2 0.00 0.00 0.00 47 1017.3
20260503235823 18 160 1.6 4.8 0.00 0.00 0.00 45 1017.3
20260503150745 13 93 4.8 11.3 0.00 0.00 0.00 50 1023.0
20260503130705 8 89 1.6 6.4 0.00 0.00 0.00 1 1023.0